Starlink 31965

operational
NORAD ID: 59888 Int'l Des: 2024-100 Owner: SPXS Country: US Constellation: starlink
LEOCIRCULAR

Über Starlink 31965

Beschreibung wird geladen...

Live-Position

3D-Globus wird geladen...

Nächste Überflüge

Höhenverlauf

Altitude vs Time

uPlot chart will show altitude changes over time

Zweizeiliger Elementsatz

1 59888U 24100D 26095.36015804 .00037551 00000-0 13662-2 0 9995
2 59888 43.0010 334.9618 0001150 280.4387 79.6335 15.27603520105135
Epoch: 5. Apr. 2026 • Age: 11 hours

Aktueller Status

Höhe 483.2 km
Geschwindigkeit 7.63 km/s
Subsatellitenpunkt 26.05°N, 127.4°W
Startdatum 28. Mai 2024
Alter 1.8 years
Typ internet

Technische Details

Klassifizierung Payload
Masse 730.00 kg
Trockenmasse 700.00 kg
Gesamtmasse 730.00 kg
Länge 0.30 m
Durchmesser 4.10 m
Spannweite 29.00 m
Form Box + pan
Hersteller SPXS
Bus-Typ Starlink V2M
Phasenstatus In Orbit
Besitzer/Staat SPXS/US

Große Konstellationen

Loading constellations...